Regional Weather Roundup
Issued by NWS

Home | Current Version | Previous Version | Text Only | Print | Product List | Glossary Off
Versions: 1 2 3 4 5 6 7 8 9 10 11 12 13 14 15 16 17 18 19 20 21 22 23 24 25 26 27 28 29 30 31 32 33 34 35 36 37 38 39 40 41 42 43 44 45 46 47 48 49 50

255
ASUS45 KSLC 200510
RWRUT

UTAH REGIONAL WEATHER ROUNDUP
NATIONAL WEATHER SERVICE SALT LAKE CITY UT
1000 PM MST SUN FEB 19 2017

UTZ001>011-023>025-200600-

NORTHERN UTAH

CITY           SKY/WX    TMP DP  RH WIND       PRES   REMARKS
BRIGHAM CITY     N/A     39  34  81 NW7       29.89R WCI  34
HILL AFB       CLEAR     40  33  74 E13       29.89R WCI  33
LOGAN          CLEAR     37  32  82 SE6       29.90R WCI  32
OGDEN          CLEAR     38  34  85 S9        29.88R WCI  31
SALT LAKE CITY PTCLDY    43  38  82 SE9       29.88R
TOOELE VALLEY  CLEAR     41  36  81 S10       29.89R
WENDOVER       PTCLDY    37  28  70 CALM      29.87R
HEBER CITY     CLEAR     32  30  93 N5        29.92R WCI  27
WEST JORDAN    CLEAR     43  41  93 S8        29.90R

$$

UTZ011>015-024>027-200600-

CENTRAL/NORTHEAST UTAH

CITY           SKY/WX    TMP DP  RH WIND       PRES   REMARKS
PROVO AIRPORT  MOCLDY    39  35  86 SE7       29.93R WCI  34
MOAB/CANYONLAN PTCLDY    40  39  97 CALM      29.94R
DELTA          PTCLDY    41  34  75 S18G25    29.93R
PRICE          CLOUDY    36  35  96 N6        29.96R WCI  31
RICHFIELD      CLEAR     41  32  70 CALM      29.97R
ROOSEVELT      MOCLDY    37  36  93 CALM      29.97R
VERNAL         CLEAR     33  32  96 W5        29.94R WCI  29

$$

UTZ013>016-019>022-027-200600-

SOUTHERN UTAH

CITY           SKY/WX    TMP DP  RH WIND       PRES   REMARKS
BRYCE CANYON   MOCLDY    31  27  85 NW5       30.03R WCI  26
CEDAR CITY     CLEAR     37  34  89 SW10      30.00R WCI  30
MILFORD        CLOUDY    43  35  73 S18       29.98R
ST GEORGE      MOCLDY    48  43  82 SE3       30.04R
HANKSVILLE     CLEAR     34  32  93 CALM      29.98R
KANAB          CLEAR     43  37  81 SW10      30.08R
BLANDING       CLEAR     37  35  93 CALM      30.04R

$$

REGIONAL REPORTS     COLORADO/ARIZONA

CITY           SKY/WX    TMP DP  RH WIND       PRES   REMARKS
CRAIG, CO      CLOUDY    33  30  88 NW3       29.93R
GRAND JUNCTION CLOUDY    40  40 100 CALM      29.95R
RIFLE, CO      CLOUDY    40  37  89 W9        29.94R WCI  34
MONTROSE, CO   RAIN      38  36  92 W6        29.98R WCI  33
CORTEZ, CO     RAIN      38  36  92 N3        29.99R FOG
COLORADO CITY  CLOUDY    43  39  87 CALM      30.08R
PAGE, AZ       CLEAR     46  32  58 CALM      30.01R
GRAND CANYON   LGT RAIN  36  36 100 W6        30.08R WCI  31
KINGMAN, AZ    CLOUDY    49  42  77 CALM      30.06R
FLAGSTAFF, AZ  CLOUDY    33  31  92 W8        30.09R WCI  26

$$

REGIONAL REPORTS    NEVADA/IDAHO/WYOMING

CITY           SKY/WX    TMP DP  RH WIND       PRES   REMARKS
LAS VEGAS, NV  PTCLDY    55  40  56 S6        29.97R
ELY, NY        MOCLDY    38  31  76 S14       29.93R WCI  30
ELKO, NV       CLOUDY    40  29  64 CALM      29.85R
POCATELLO, ID  LGT RAIN  34  30  85 S7        29.88R WCI  28
BURLEY, ID     PTCLDY    34  28  79 SE5       29.84R WCI  30
FORT BRIDGER,    N/A     32  31  99 SW14      29.95R WCI  22
EVANSTON, WY   PTCLDY    30  27  88 S5        29.93R WCI  25
ROCK SPRINGS,  PTCLDY    30  26  85 NE3       29.92R

$$




USA.gov is the U.S. government's official web portal to all federal, state and local government web resources and services.